Sandspit, British Columbia

12:12 AM PST on February 20, 2018 (GMT -0800)
Sandspit

Weather History for CYZP - June, 2013

Change the Weather History Date:

Wednesday, June 19, 2013

  Actual Average Record
Temperature  
Mean Temperature 56 °F -  
Max Temperature 61 °F 61 °F 77 °F (2004)
Min Temperature 52 °F 51 °F 46 °F (2003)
Degree Days  
Heating Degree Days 8    
Growing Degree Days 6 (Base 50)    
Moisture  
Dew Point 52 °F    
Average Humidity 87    
Maximum Humidity 95    
Minimum Humidity 67    
Precipitation  
Precipitation 0.00 in 0.06 in - ()
Sea Level Pressure  
Sea Level Pressure 29.99 in    
Wind  
Wind Speed 5 mph ()    
Max Wind Speed 12 mph    
Max Gust Speed -    
Visibility 9.6 miles    
Events      
Averages and records for this station are not official NWS values.
T = Trace of Precipitation, MM = Missing Value Source: Averaged Metar Reports

Daily Weather History Graph

Daily Weather History Graph

Search for Another Location

Airport or City:

Trip Planner

Search our weather history database for the weather conditions in past years. The results will help you decide how hot, cold, wet, or windy it might be!

Date:

Astronomy

Jun. 19, 2013 Rise Set
Actual Time 5:19 AM PDT 10:18 PM PDT
Civil Twilight 4:27 AM PDT 11:10 PM PDT
Nautical Twilight 2:54 AM PDT 12:43 AM PDT
Astronomical Twilight Sun does not rise Sun does not rise
Moon 5:55 PM PDT (6/19) 2:38 AM PDT (6/19)
Length of Visible Light 18h 43m
Length of Day
16h 59m
Waxing Gibbous, 81% of the Moon is Illuminated
Jun 19
Waxing Gibbous
Jun 23
Full
Jun 29
Last Quarter
Jul 8
New
Jul 15
First Quarter

Hourly Weather History & Observations

Time (PDT) Temp. Dew Point Humidity Pressure Visibility Wind Dir Wind Speed Gust Speed Precip Events Conditions
12:00 AM 54.5 °F 52.2 °F 92% 29.99 in 10.0 mi WSW 2.3 mph - N/A   Scattered Clouds
12:01 AM 54.5 °F 52.2 °F 92% 29.99 in 10.0 mi WSW 2.3 mph - N/A   Mostly Cloudy
12:10 AM 53.6 °F 51.4 °F 92% 29.99 in 10.0 mi West 3.5 mph - N/A   Scattered Clouds
12:53 AM 53.6 °F 51.4 °F 92% 29.99 in 10.0 mi WSW 8.1 mph - N/A   Mostly Cloudy
1:00 AM 54.0 °F 51.4 °F 91% 29.99 in 10.0 mi WSW 8.1 mph - N/A   Mostly Cloudy
2:00 AM 53 °F 52 °F 93% 29.98 in - West 1.2 mph - -  
2:00 AM 53.8 °F 51.4 °F 92% 29.99 in 10.0 mi West 11.5 mph - N/A   Overcast
3:00 AM 53.8 °F 51.3 °F 91% 29.99 in 10.0 mi West 8.1 mph - N/A   Overcast
3:32 AM 54.0 °F 51.4 °F 91% 29.99 in 10.0 mi West 8.1 mph - N/A   Overcast
4:00 AM 54.1 °F 51.3 °F 90% 29.99 in 10.0 mi West 6.9 mph - N/A   Overcast
5:00 AM 54 °F 51 °F 88% 29.98 in - WNW 2.3 mph - -  
5:00 AM 53.8 °F 51.6 °F 92% 29.99 in 8.0 mi West 6.9 mph - N/A   Overcast
5:10 AM 53.6 °F 51.6 °F 93% 29.99 in 5.0 mi West 8.1 mph - N/A   Overcast
5:16 AM 53.6 °F 51.6 °F 93% 29.99 in 6.0 mi West 8.1 mph - N/A   Overcast
5:31 AM 53.6 °F 51.6 °F 93% 29.99 in 8.0 mi WSW 8.1 mph - N/A   Overcast
6:00 AM 53.6 °F 51.6 °F 93% 29.99 in 10.0 mi WSW 6.9 mph - N/A   Overcast
7:00 AM 54.3 °F 51.8 °F 91% 29.99 in 10.0 mi West 6.9 mph - N/A   Overcast
7:04 AM 54.3 °F 51.6 °F 91% 29.98 in 10.0 mi West 6.9 mph - N/A   Overcast
7:19 AM 54.5 °F 52.0 °F 91% 29.98 in 10.0 mi West 6.9 mph - N/A   Overcast
8:00 AM 55 °F 52 °F 87% 29.96 in - WNW 3.5 mph - -  
8:00 AM 55.2 °F 52.5 °F 91% 29.97 in 10.0 mi West 9.2 mph - N/A   Overcast
9:00 AM 56.5 °F 52.7 °F 87% 29.98 in 10.0 mi WSW 5.8 mph - N/A   Overcast
10:00 AM 57.4 °F 52.7 °F 84% 29.98 in 10.0 mi West 4.6 mph - N/A   Overcast
11:00 AM 59 °F 51 °F 67% 29.97 in - North 3.5 mph - -  
11:00 AM 58.3 °F 52.5 °F 81% 29.99 in 10.0 mi North 3.5 mph - N/A   Overcast
11:35 AM 58.6 °F 52.3 °F 80% 29.99 in 10.0 mi Variable 2.3 mph - N/A   Scattered Clouds
12:00 PM 59.4 °F 52.5 °F 78% 29.98 in 10.0 mi North 4.6 mph - N/A   Clear
1:00 PM 59.5 °F 54.1 °F 82% 29.97 in 10.0 mi NNE 6.9 mph - N/A   Clear
2:00 PM 59 °F 54 °F 77% 29.96 in - East 6.9 mph - -  
2:00 PM 59.0 °F 54.3 °F 84% 29.97 in 10.0 mi East 6.9 mph - N/A   Partly Cloudy
3:00 PM 60.1 °F 54.1 °F 81% 29.98 in 10.0 mi East 10.4 mph - N/A   Clear
4:00 PM 59.2 °F 54.5 °F 84% 29.98 in 10.0 mi ESE 9.2 mph - N/A   Mostly Cloudy
5:00 PM 59 °F 54 °F 79% 29.97 in - SE 6.9 mph - -  
5:00 PM 59.5 °F 54.0 °F 82% 29.98 in 10.0 mi SE 9.2 mph - N/A   Scattered Clouds
6:00 PM 58.8 °F 53.8 °F 83% 29.99 in 10.0 mi SE 9.2 mph - N/A   Overcast
7:00 PM 58.6 °F 53.2 °F 82% 30.00 in 10.0 mi ESE 6.9 mph - N/A   Scattered Clouds
8:00 PM 57 °F 53 °F 83% 29.99 in - ESE 3.5 mph - -  
8:00 PM 57.6 °F 53.8 °F 87% 30.00 in 10.0 mi ESE 4.6 mph - N/A   Mostly Cloudy
9:00 PM 57.2 °F 53.8 °F 88% 30.01 in 10.0 mi SE 5.8 mph - N/A   Overcast
10:00 PM 55.2 °F 53.4 °F 94% 30.01 in 10.0 mi SE 5.8 mph - N/A   Clear
11:00 PM 54 °F 52 °F 90% 30.01 in - Calm Calm - -  
11:00 PM 54.7 °F 53.2 °F 95% 30.02 in 10.0 mi Calm Calm - N/A   Scattered Clouds
11:04 PM 54.3 °F 52.0 °F 92% 30.02 in 10.0 mi WSW 3.5 mph - N/A   Mostly Cloudy
11:15 PM 53.8 °F 51.3 °F 91% 30.02 in 10.0 mi WSW 5.8 mph - N/A   Scattered Clouds